FW3784 Weather Reports


time (UTC)temp
C
wind
direction
speed
KPH
gust
KPH
rain 1hr
cm
rain 24hr
cm
rain mn
cm
humidity
%
barometer
mb
20260507000042 15 90 0.0 0.0 0.08 0.51 0.51 93 1003.5
20260506234540 15 90 0.0 0.0 0.03 0.46 0.46 93 1003.4
20260506233045 15 90 0.0 0.0 0.00 0.43 0.43 93 1003.2
20260506231538 15 20 0.0 0.0 0.00 0.43 0.43 93 1003.1
20260506230037 15 62 0.0 0.0 0.00 0.43 0.43 93 1003.1
20260506224537 15 76 0.0 0.0 0.00 0.43 0.43 94 1003.1
20260506223035 15 57 0.0 0.0 0.00 0.43 0.43 94 1003.2
20260506221533 15 51 0.0 0.0 0.00 0.43 0.43 94 1003.4
20260506220033 15 53 0.0 0.0 0.00 0.43 0.43 94 1003.5
20260506214531 14 200 0.0 0.0 0.03 0.43 0.43 93 1003.5
20260506213031 15 25 0.0 1.6 0.03 0.43 0.43 93 1003.6
20260506211528 15 22 0.0 0.0 0.03 0.43 0.43 93 1003.8
20260506210059 15 22 0.0 0.0 0.03 0.43 0.43 93 1003.9
20260506204556 15 22 0.0 0.0 0.08 0.41 0.41 94 1004.0
20260506203054 15 22 0.0 0.0 0.13 0.41 0.41 94 1004.2
20260506201551 15 22 0.0 0.0 0.15 0.41 0.41 93 1004.4
20260506200049 15 22 0.0 0.0 0.18 0.41 0.41 93 1004.4
20260506194548 15 22 0.0 0.0 0.13 0.33 0.33 93 1004.6
20260506193048 15 22 0.0 0.0 0.08 0.28 0.28 93 1004.8
20260506191544 15 89 0.0 0.0 0.08 0.25 0.25 93 1005.0
20260506190044 15 65 0.0 0.0 0.10 0.23 0.23 94 1005.1
20260506184526 15 82 0.0 0.0 0.13 0.20 0.20 94 1005.3
20260506183026 15 47 0.0 0.0 0.15 0.20 0.20 94 1005.3
20260506181524 15 47 0.0 0.0 0.18 0.18 0.18 94 1005.7
20260506180023 15 47 0.0 0.0 0.13 0.13 0.13 93 1005.7
20260506174522 15 47 0.0 0.0 0.08 0.08 0.08 92 1005.9
20260506173022 15 47 0.0 0.0 0.05 0.05 0.05 91 1005.7
20260506171522 16 47 0.0 0.0 0.00 0.00 0.00 89 1005.6
20260506170022 16 47 0.0 0.0 0.00 0.00 0.00 85 1005.6
20260506164519 16 47 0.0 0.0 0.00 0.00 0.00 83 1005.7
20260506163031 16 47 0.0 0.0 0.00 0.00 0.00 83 1005.8
20260506161515 16 47 0.0 0.0 0.00 0.00 0.00 84 1006.2
20260506160018 16 47 0.0 0.0 0.00 0.00 0.00 82 1006.9
20260506154510 16 47 0.0 0.0 0.00 0.00 0.00 80 1007.4
20260506153010 16 47 0.0 0.0 0.00 0.00 0.00 81 1007.4
20260506151509 16 47 0.0 0.0 0.00 0.00 0.00 80 1007.5
20260506150008 16 47 0.0 0.0 0.00 0.00 0.00 79 1007.3
20260506144507 16 47 0.0 0.0 0.00 0.00 0.00 79 1007.5
20260506143005 16 47 0.0 0.0 0.00 0.00 0.00 79 1007.2
20260506141501 16 47 0.0 0.0 0.00 0.00 0.00 80 1007.3
20260506134559 15 47 0.0 0.0 0.00 0.00 0.00 80 1007.5
20260506133059 15 47 0.0 0.0 0.00 0.00 0.00 81 1007.8
20260506131600 15 47 0.0 0.0 0.00 0.00 0.00 81 1007.7
20260506130100 15 47 0.0 0.0 0.00 0.00 0.00 79 1007.7
20260506124557 15 47 0.0 0.0 0.00 0.00 0.00 79 1007.7
20260506123053 15 47 0.0 0.0 0.00 0.00 0.00 81 1007.7
20260506121550 15 47 0.0 0.0 0.00 0.00 0.00 80 1007.9
20260506120019 14 47 0.0 0.0 0.00 0.00 0.00 84 1008.1
20260506114517 14 47 0.0 0.0 0.00 0.00 0.00 86 1007.8
20260506113017 13 47 0.0 0.0 0.00 0.00 0.00 89 1008.0
20260506111515 12 47 0.0 0.0 0.00 0.00 0.00 91 1008.0
20260506110015 12 47 0.0 0.0 0.00 0.00 0.00 91 1008.0
20260506104513 12 47 0.0 0.0 0.00 0.00 0.00 91 1008.6
20260506103011 11 47 0.0 0.0 0.00 0.00 0.00 91 1008.3
20260506101509 11 47 0.0 0.0 0.00 0.00 0.00 90 1008.0
20260506100008 12 47 0.0 0.0 0.00 0.00 0.00 90 1007.8
20260506094504 12 47 0.0 0.0 0.00 0.00 0.00 89 1007.5
20260506093004 12 47 0.0 0.0 0.00 0.00 0.00 88 1007.9
20260506091600 12 47 0.0 0.0 0.00 0.00 0.00 87 1007.7
20260506090058 12 47 0.0 0.0 0.00 0.00 0.00 87 1007.8
20260506084557 13 47 0.0 0.0 0.00 0.00 0.00 86 1007.8
20260506083102 13 47 0.0 0.0 0.00 0.00 0.00 86 1007.8
20260506081553 13 47 0.0 0.0 0.00 0.00 0.00 86 1007.8
20260506073049 13 47 0.0 0.0 0.00 0.00 0.00 88 1007.6
20260506071547 13 47 0.0 0.0 0.00 0.00 0.00 89 1007.6
20260506061545 14 47 0.0 0.0 0.00 0.00 0.00 87 1007.4
20260506044545 13 47 0.0 0.0 0.00 0.00 0.00 89 1007.5
20260506043037 13 47 0.0 0.0 0.00 0.00 0.00 89 1007.4
20260506041535 13 47 0.0 0.0 0.00 0.00 0.00 89 1007.3
20260506040051 13 47 0.0 0.0 0.00 0.00 0.00 89 1007.5
20260506034534 14 47 0.0 0.0 0.00 0.00 0.00 88 1007.3
20260506033025 13 47 0.0 0.0 0.00 0.00 0.00 86 1007.7
20260506031539 13 47 0.0 0.0 0.00 0.00 0.00 86 1007.2
20260506030023 13 47 0.0 0.0 0.00 0.00 0.00 86 1007.2
20260506024523 14 47 0.0 0.0 0.00 0.00 0.00 85 1007.3
20260506023022 14 47 0.0 0.0 0.00 0.00 0.00 84 1007.1
20260506021521 15 47 0.0 0.0 0.00 0.00 0.00 82 1007.1
20260506020021 15 47 0.0 0.0 0.00 0.00 0.00 81 1007.3
20260506014520 16 47 0.0 0.0 0.00 0.00 0.00 81 1007.3
20260506013020 16 47 0.0 0.0 0.00 0.00 0.00 81 1007.4
20260506011520 16 47 0.0 0.0 0.00 0.00 0.00 81 1007.3
20260506010019 16 47 0.0 0.0 0.00 0.00 0.00 82 1007.2
20260506004524 16 47 0.0 0.0 0.00 0.00 0.00 81 1007.2
20260506003018 16 47 0.0 0.0 0.00 0.00 0.00 80 1006.8
20260506001517 16 47 0.0 0.0 0.00 0.00 0.00 78 1006.6